Home > Weather > The Hague > Past weeks

Flag for Netherlands Past Weather in The Hague, Netherlands — Yesterday and Last 2 Weeks

Now
59 °F

Rain. Partly sunny.


Feels Like: 58 °F
Forecast: 57 / 62 °F
Wind: 6 mph from Northwest

Location: Rotterdam Zestienhoven Airport

Current Time: Jun 1, 2016 at 9:30:41 AM

Latest Report: Jun 1, 2016 at 8:55 AM


Visibility: 1 mi

Pressure: 29.98 "Hg

Humidity: 100%

Dew Point: 59 °F

Location of The HagueLocation

Past Weather in The Hague — Graph

°F

The Hague Temperature Yesterday

Maximum temperature yesterday: 72 °F (at 2:25 PM)
Minimum temperature yesterday: 57 °F (at 12:25 AM)
Average temperature yesterday: 64 °F

High & Low Weather Summary for the Past Weeks

 TemperatureHumidityPressure
High73 °F (May 21, 4:25 PM)100% (May 20, 10:25 AM)30.09 "Hg (May 20, 10:25 AM)
Low41 °F (May 26, 5:55 AM)53% (May 21, 4:25 PM)29.65 "Hg (May 18, 5:25 PM)
Average58 °F83%29.89 "Hg
* Reported May 17 8:25 AM — Jun 1 8:25 AM, The Hague, Weather by CustomWeather, © 2016

Note: Actual official high and low records may vary slightly from our data, if they occured in-between our weather recording intervals... More about our weather records

Advertising

The Hague Weather History for the Previous 24 Hours

Scroll right to see more
 ConditionsComfort  
Time TempWeatherWind HumidityBarometerVisibility
8:25 AM
Wed, Jun 1
57 °FFog.6 mph100%29.98 "Hg0 mi
7:55 AM57 °FFog.6 mph100%29.98 "Hg0 mi
7:25 AM57 °FFog.5 mph100%29.98 "Hg0 mi
6:55 AM55 °FFog.6 mph100%29.98 "Hg0 mi
6:25 AM55 °FFog.6 mph100%29.98 "Hg0 mi
5:55 AM55 °FFog.5 mph100%29.98 "Hg0 mi
5:25 AM57 °FFog.6 mph94%29.98 "Hg1 mi
4:55 AM57 °FFog.3 mph100%29.95 "Hg1 mi
4:25 AM57 °FFog.5 mph100%29.95 "Hg0 mi
3:55 AM57 °FFog.6 mph100%29.95 "Hg0 mi
3:25 AM57 °FFog.6 mph100%29.95 "Hg0 mi
2:55 AM57 °FFog.3 mph100%29.98 "Hg0 mi
2:25 AM57 °FFog.3 mph100%29.98 "Hg0 mi
1:55 AM55 °FFog.2 mph100%29.95 "Hg1 mi
1:25 AM55 °FFog.3 mph100%29.95 "Hg1 mi
12:55 AM55 °FFog.2 mph100%29.95 "Hg2 mi
12:25 AM57 °FFog.2 mph100%29.95 "Hg2 mi
11:55 PM
Tue, May 31
59 °FClear.1 mph94%29.95 "Hg4 mi
11:25 PM59 °FCool.2 mph94%29.95 "HgN/A
10:55 PM59 °FCool.3 mph94%29.95 "HgN/A
10:25 PM61 °FLight rain. Cloudy.3 mph94%29.95 "HgN/A
9:55 PM64 °FMild.3 mph83%29.92 "HgN/A
9:25 PM66 °FClear.2 mph73%29.92 "HgN/A
8:55 PM68 °FMild.2 mph69%29.89 "HgN/A
8:25 PM68 °FMild.5 mph64%29.89 "HgN/A
7:55 PM68 °FBroken clouds.6 mph64%29.89 "HgN/A
6:55 PM72 °FClear.9 mph57%29.86 "HgN/A
6:25 PM70 °FClear.8 mph60%29.86 "HgN/A
5:55 PM70 °FClear.9 mph57%29.86 "HgN/A
4:55 PM70 °FScattered clouds.8 mph64%29.86 "HgN/A
4:25 PM70 °FBroken clouds.9 mph64%29.86 "HgN/A
3:55 PM70 °FPassing clouds.12 mph64%29.83 "HgN/A
3:25 PM72 °FBroken clouds.13 mph61%29.83 "HgN/A
2:55 PM72 °FScattered clouds.15 mph57%29.83 "HgN/A
2:25 PM72 °FClear.12 mph61%29.83 "HgN/A
1:55 PM68 °FPartly sunny.14 mph64%29.83 "HgN/A
1:25 PM70 °FBroken clouds.13 mph64%29.80 "HgN/A
12:55 PM68 °FPartly sunny.14 mph69%29.80 "HgN/A
12:25 PM68 °FOvercast.15 mph69%29.80 "HgN/A
11:55 AM70 °FBroken clouds.13 mph64%29.77 "HgN/A
11:25 AM68 °FPassing clouds.13 mph69%29.77 "HgN/A
10:55 AM68 °FScattered clouds.13 mph69%29.77 "HgN/A
10:25 AM68 °FPartly sunny.13 mph69%29.74 "HgN/A
9:55 AM66 °FPassing clouds.13 mph73%29.74 "HgN/A
9:25 AM66 °FPassing clouds.12 mph73%29.74 "HgN/A
Weather by CustomWeather, © 2016

See weather overviewHow to use our weather pages